This is the latest recevied weather packets stored in our database for station/object KL7GG. If no packets are shown the sender has not sent any weather packets the latest 1 day(s).
| Time | Temp. | Humidity | Pressure | Rain* | Wind** | Luminosity | Snow |
|---|---|---|---|---|---|---|---|
| 1778015584 | 10.56° C | 57% | 1002.5 hPa | 0 mm | 3.13 m/s, 315° | - | - |
| 1778014678 | 10° C | 59% | 1002.5 hPa | 0 mm | 1.79 m/s, 291° | - | - |
| 1778012868 | 9.44° C | 62% | 1002.4 hPa | 0 mm | 1.79 m/s, 293° | - | - |
| 1778011964 | 9.44° C | 62% | 1002.4 hPa | 0 mm | 0.45 m/s, 299° | - | - |
| 1778011060 | 8.89° C | 66% | 1002.3 hPa | 0 mm | 2.24 m/s, 303° | - | - |
| 1778010156 | 8.89° C | 64% | 1002.4 hPa | 0 mm | 0.45 m/s, 278° | - | - |
| 1778009252 | 8.33° C | 69% | 1002.3 hPa | 0 mm | 0 m/s | - | - |
| 1778008348 | 7.78° C | 74% | 1002.3 hPa | 0 mm | 0 m/s | - | - |
| 1778007444 | 7.22° C | 80% | 1002.4 hPa | 0 mm | 0 m/s | - | - |
| 1778006540 | 6.67° C | 82% | 1002.5 hPa | 0 mm | 0 m/s | - | - |
| 1778005636 | 6.67° C | 83% | 1002.3 hPa | 0 mm | 1.34 m/s, 322° | - | - |
| 1778004732 | 6.67° C | 85% | 1002 hPa | 0 mm | 0 m/s | - | - |
| 1778003828 | 6.11° C | 87% | 1002 hPa | 0 mm | 1.79 m/s, 321° | - | - |
| 1778002922 | 6.11° C | 91% | 1001.7 hPa | 0 mm | 0 m/s | - | - |
| 1778002018 | 5.56° C | 93% | 1001.5 hPa | 0 mm | 0 m/s | - | - |
| 1778001114 | 5.56° C | 95% | 1001.4 hPa | 0 mm | 0 m/s | - | - |
| 1778000210 | 5° C | 96% | 1001.4 hPa | 0 mm | 0 m/s | - | - |
| 1777999306 | 4.44° C | 96% | 1001.2 hPa | 0 mm | 0 m/s | - | - |
| 1777998402 | 3.89° C | 96% | 1001.1 hPa | 0 mm | 0 m/s | - | - |
| 1777997498 | 3.33° C | 96% | 1001 hPa | 0 mm | 0 m/s | - | - |
| 1777996594 | 3.33° C | 95% | 1001 hPa | 0 mm | 0 m/s | - | - |
| 1777995690 | 3.33° C | 96% | 1000.8 hPa | 0 mm | 0 m/s | - | - |
| 1777994786 | 3.33° C | 95% | 1000.8 hPa | 0 mm | 0 m/s | - | - |
| 1777993882 | 2.78° C | 95% | 1000.5 hPa | 0 mm | 1.34 m/s, 321° | - | - |
| 1777992978 | 2.78° C | 95% | 1000.5 hPa | 0 mm | 0 m/s | - | - |
* Rain latest hour (hover to see other rain measurements)
** Current wind speed in m/s (hover to see current wind gust speed)